SL-24 DEB

Satellite information

Favourite Embed

Satellite Type and Status

DEBRISIN ORBIT

Key statistics

Satellite SL-24 DEB at a glance.

Uptime

6815

Days in orbit

Revolutions

≈ 14.8

Per day

Orbit

SSO

Sun Synchronous Orbit

Inclination

97.8

Latest

Satellite identification and parameters

Extended collection of information and parameters for SL-24 DEB.

Object identification

Identified? True

Debris? True

Object name: SL-24 DEB

International designator: 2007-012D

Object number (NORAD): 31120

Object ID (CCSDS): 31120

Country: COMMONWEALTH OF INDEPENDENT STATES (CIS)

Current information (Y/N): Y

RCS size: MEDIUM

Orbital parameters

Period: 97.011 minutes

Inclination: 97.7886 deg

SMA: 6993.689 km

Apoapsis: 620.263 km

Periapsis: 610.845 km

RAAN: 306.8478 deg

Eccentricy: 0.0006733

Argument of periapsis: 8.2981 deg

Mean anomaly: 351.8344 deg

Mean motion: 14.84373916 rev/day

Mean motion (dot): 0.00003515 rev/day2

B* drag term: 0.00042449 1/REarth

Two-line elements (TLE)

Creation date: Dec. 12, 2025, 7:26 a.m.

Reference frame: TEME

Reference center: EARTH

Epoch: Dec. 11, 2025, 8:35 p.m. UTC

TLE line 0: 0 SL-24 DEB

TLE line 1: 1 31120U 07012D 25345.85813318 .00003515 00000-0 42449-3 0 9993

TLE line 2: 2 31120 97.7886 306.8478 0006733 8.2981 351.8344 14.84373916 4689

Live tracking on map

Real-time ground track for satellite SL-24 DEB.

In-orbit conjunctions

A list of the most updated potential collisions computed for object SL-24 DEB.

Target Orbit TCA Probability of collision Miss distance Type
COSMOS 2535 DEB SSO 2025-11-24 20:28:18 0.0001098164 560.0 (m) DEBRIS
SL-14 R/B LEO 2024-12-18 23:49:19 0.0001816549 284.0 (m) ROCKET BODY
SL-14 R/B LEO 2024-07-23 10:48:42 0.0001198682 112.0 (m) ROCKET BODY

Associated space launch

Rideshare mission with Egyptian and Saudi Arabian Earth observation satellites as well as 14 American cubesats

SL-24 DEB was lifted into orbit during the mission ‘Dnepr | EgyptSat 1 & Saudisat 3’, on board a Dnepr space rocket.

The launch took place on April 17, 2007, 6:46 a.m. from 109/95.

For more information about the launch, click the button.

Launch to space Dnepr | EgyptSat 1 & Saudisat 3
Dnepr | EgyptSat 1 & Saudisat 3

Agency: N/A

Status: Launch Successful

Launch date: April 17, 2007, 6:46 a.m. UTC

Rocket: Dnepr

Launch pad: 109/95

Location: Baikonur Cosmodrome, Republic of Kazakhstan

...

Latest news about this satellite

There are no fresh news available about this satellite. Check back as we update our databases every day.


Newsletter sign-up

Weekly statistics, charts and insights to help you stay on top of the space industry.